Regional Weather Roundup
Issued by NWS

Home | Current Version | Previous Version | Graphics & Text | Print | Product List | Glossary On
Versions: 1 2 3 4 5 6 7 8 9 10 11 12 13 14 15 16 17 18 19 20 21 22 23 24 25 26 27 28 29 30 31 32 33 34 35 36 37 38 39 40 41 42 43 44 45 46 47 48 49 50
177
ASUS43 KOAX 270802
RWRNE

WEATHER ROUNDUP FOR NEBRASKA
NATIONAL WEATHER SERVICE OMAHA NE
300 AM CDT TUE SEP 27 2016

NOTES: SATELLITE DATA IS BEING USED TO AUGMENT CLOUD COVER ABOVE
       12000 FEET.
       "FAIR" INDICATES FEW OR NO CLOUDS BELOW 12,000 FEET WITH NO
       SIGNIFICANT WEATHER AND/OR OBSTRUCTIONS TO VISIBILITY.

  * THESE STATIONS DO NOT REPORT WEATHER SUCH AS RAIN...SNOW OR FOG.

NEZ001>004-019>022-054>056-270900-
NEBRASKA PANHANDLE

CITY           SKY/WX    TMP DP  RH WIND       PRES   REMARKS
SCOTTSBLUFF    CLEAR     46  41  82 NW3       30.22F
ALLIANCE       CLOUDY    38  36  92 NW6       30.21S WCI  33
CHADRON        CLEAR     42  40  92 SW3       30.18F
KIMBALL        CLEAR     44  40  83 W7        30.27F
SIDNEY         CLEAR     44  39  82 NW9       30.24F
$$

NEZ057>060-069>072-079>082-270900-
SOUTHWEST NEBRASKA

CITY           SKY/WX    TMP DP  RH WIND       PRES   REMARKS
NORTH PLATTE   CLEAR     41  38  89 NW5       30.17S
IMPERIAL       CLEAR     47  40  76 CALM      30.19F
LEXINGTON      CLEAR     45  41  86 NW6       30.14F
MCCOOK         CLEAR     50  43  77 W10       30.15F
OGALLALA       CLEAR     43  40  89 W5        30.19F
$$

NEZ005>010-023>029-035>040-094-270900-
NORTH CENTRAL NEBRASKA

CITY           SKY/WX    TMP DP  RH WIND       PRES   REMARKS
VALENTINE      CLOUDY    45  37  73 W7        30.14S
AINSWORTH      CLOUDY    46  40  81 W7        30.12F
BROKEN BOW     CLEAR     43  40  89 CALM      30.13F
O`NEILL        CLEAR     47  40  78 W3        30.10S
ORD            CLEAR     43  39  86 CALM      30.10S
THEDFORD       PTCLDY    47  41  81 CALM      30.16F
$$

NEZ041-046>049-061>064-073>077-083>087-270900-
SOUTH CENTRAL NEBRASKA

CITY           SKY/WX    TMP DP  RH WIND       PRES   REMARKS
GRAND ISLAND   CLEAR     48  43  82 W7        30.11S
AURORA         CLEAR     50  45  81 W7        30.09F
HASTINGS       CLEAR     53  42  66 SW7       30.11F
HEBRON         CLEAR     47  45  90 CALM      30.10S
HOLDREGE       CLEAR     46  42  85 CALM      30.13F
KEARNEY *      CLEAR     48  39  71 W3        30.12S
YORK           CLEAR     48  45  87 W5        30.09S
$$

NEZ011>018-030>034-042>045-270900-
NORTHEAST NEBRASKA

CITY           SKY/WX    TMP DP  RH WIND       PRES   REMARKS
NORFOLK        CLEAR     45  41  86 SW6       30.07F
ALBION         CLEAR     42  40  92 N3        30.09F
BLAIR          CLEAR     55  45  69 W7        30.05S
FREMONT        CLEAR     48  45  89 W3        30.06S
TEKAMAH        CLEAR     49  43  80 NE3       30.04F
WAYNE          CLEAR     44  42  93 S5        30.08S
$$

NEZ050>053-065>068-078-088>093-270900-
SOUTHEAST NEBRASKA

CITY           SKY/WX    TMP DP  RH WIND       PRES   REMARKS
LINCOLN        CLEAR     49  46  90 CALM      30.09S
OMAHA EPPLEY   CLEAR     54  47  77 SE5       30.05S
BEATRICE       CLEAR     50  47  87 CALM      30.08S
FALLS CITY     CLEAR     52  47  83 CALM      30.06F
NEBRASKA CITY  CLEAR     55  37  50 W7        30.06F
PLATTSMOUTH    CLEAR     55  40  58 W6        30.05F
$$

NEZ044-045-051>053-067-270900-
OMAHA AREA

CITY           SKY/WX    TMP DP  RH WIND       PRES   REMARKS
OMAHA EPPLEY   CLEAR     54  47  77 SE5       30.05S
BLAIR          CLEAR     55  45  69 W7        30.05S
FREMONT        CLEAR     48  45  89 W3        30.06S
MILLARD        CLEAR     51  49  94 CALM      30.05S
OFFUTT AFB     CLEAR     51  48  90 W1        30.04S
PLATTSMOUTH    CLEAR     55  40  58 W6        30.05F
WAHOO          FAIR      50  47  88 W6        30.06F
$$




USA.gov is the U.S. government's official web portal to all federal, state and local government web resources and services.